[[{"header":{"parameterUnit":"m.s-1","parameterCategory":1,"la1":30.2991,"la2":30.254,"lo1":-89.0895,"lo2":-89.0444,"dy":0.0017,"dx":0.0017,"nx":28,"ny":28,"refTime":"2024-06-14T09:00:00:Z","depth":0,"parameterNumber":2,"parameterNumberName":"U-component_of_WINDS"},"data":[0,0,0,0,0,0,0,0,0,0,0,0,0,0,0,0,0,0,0,0,0,0,0,0,0,0,0,0,0,0,0,0,0,0,0,0,0,0,0,0,0,0,0,0,0,0,0,0,0,0,0,0,0,0,0,0,0,0,-2.2314,-2.2314,0,-2.2357,-2.2357,-2.2358,-2.2336,-2.2335,-2.2334,-2.2332,-2.2376,-2.2378,-2.238,0,0,0,0,0,0,0,0,0,0,0,0,0,-2.2212,-2.2214,-2.2314,-2.2314,-2.2315,-2.2357,-2.2357,-2.2358,-2.2336,-2.2335,-2.2333,-2.2332,-2.2375,-2.2377,-2.238,0,0,0,0,0,0,0,0,0,0,0,0,0,-2.2255,-2.2214,-2.2314,-2.2309,-2.2309,-2.2357,-2.2357,-2.2358,-2.2336,-2.2335,-2.2333,-2.2331,-2.2374,-2.2377,-2.238,-2.2435,0,0,-2.2391,-2.2392,0,0,0,0,0,0,0,0,-2.2253,-2.2259,-2.2309,-2.2309,-2.2309,-2.2339,-2.2337,-2.2384,-2.2337,-2.2326,-2.2332,-2.2331,-2.2365,-2.2369,-2.238,-2.2437,-2.2439,-2.2391,-2.2393,-2.2394,-2.2395,0,0,0,0,0,0,0,-2.225,-2.2257,-2.2331,-2.231,-2.231,-2.2304,-2.2309,-2.2346,-2.2354,-2.2327,-2.2325,-2.2331,-2.2365,-2.2377,-2.2381,-2.2439,-2.2391,-2.2394,-2.2396,-2.2397,-2.2542,-2.2543,0,0,0,0,0,0,-2.2247,-2.2255,-2.2329,-2.2332,-2.2276,-2.2308,-2.2312,-2.2331,-2.2354,-2.2356,-2.2332,-2.2329,-2.2373,-2.2377,-2.2383,-2.2447,-2.2394,-2.2397,-2.2399,-2.254,-2.2542,-2.2544,0,0,0,0,0,0,-2.2245,-2.2254,-2.2328,-2.2293,-2.2302,-2.2311,-2.2333,-2.2333,-2.2346,-2.2358,-2.2359,-2.2344,-2.2371,-2.2378,-2.2422,-2.2448,-2.2399,-2.2402,-2.2537,-2.254,-2.2543,-2.2577,0,0,0,0,0,0,-2.2242,-2.2254,-2.2274,-2.2294,-2.2304,-2.2366,-2.2334,-2.2335,-2.2352,-2.2349,-2.2369,-2.2371,-2.2371,-2.2417,-2.2425,-2.2452,-2.2404,-2.2535,-2.2539,-2.2542,-2.2574,-2.2581,-2.2587,0,0,0,0,0,-2.2239,-2.2282,-2.2276,-2.2285,-2.233,-2.2368,-2.2374,-2.2373,-2.2354,-2.2375,-2.2383,-2.237,-2.2444,-2.2422,-2.2431,-2.2459,-2.2533,-2.2538,-2.2542,-2.2571,-2.2579,-2.2587,0,0,0,0,0,0,-2.2266,-2.2285,-2.2278,-2.2329,-2.2347,-2.2364,-2.2391,-2.2382,-2.2406,-2.2402,-2.24,-2.2404,-2.245,-2.2459,-2.2433,-2.2512,-2.2486,-2.2492,-2.2505,-2.2513,-2.252,-2.2516,-2.2407,0,0,0,0,0,-2.2278,-2.2307,-2.2322,-2.2366,-2.2375,-2.2381,-2.2398,-2.2396,-2.2414,-2.2422,-2.2433,-2.2451,-2.2478,-2.2496,-2.2522,-2.2575,-2.2579,-2.2599,-2.2605,-2.2611,-2.2616,-2.2644,-2.2653,-2.2558,-2.2558,-2.2558,0,0,-2.2303,-2.2317,-2.2335,-2.2371,-2.2385,-2.2415,-2.2388,-2.2421,-2.2443,-2.2427,-2.2468,-2.2477,-2.2497,-2.2546,-2.2568,-2.2555,-2.2643,-2.2616,-2.262,-2.2622,-2.2649,-2.2658,-2.2666,-2.2561,-2.256,-2.256,0,0,-2.2363,-2.2377,-2.2415,-2.2429,-2.2451,-2.2454,-2.2463,-2.2482,-2.2487,-2.2529,-2.2518,-2.2544,-2.2591,-2.2606,-2.2619,-2.2685,-2.2675,-2.2694,-2.2728,-2.2755,-2.2763,-2.2769,-2.2792,-2.2801,-2.2699,-2.2699,-2.2699,0,-2.2391,-2.2437,-2.2435,-2.2469,-2.2485,-2.2472,-2.2509,-2.2523,-2.2552,-2.2563,-2.2548,-2.2607,-2.262,-2.2671,-2.2688,-2.2699,-2.2709,-2.2691,-2.2762,-2.2769,-2.2775,-2.2797,-2.2805,-2.2701,-2.2701,-2.2701,-2.2701,0,-2.247,-2.2501,-2.2529,-2.2557,-2.2576,-2.2612,-2.2615,-2.2635,-2.2631,-2.2636,-2.2679,-2.2694,-2.2722,-2.2734,-2.2731,-2.2785,-2.2777,-2.2762,-2.2735,-2.2786,-2.2806,-2.2815,-2.2704,-2.2704,-2.2703,-2.2703,0,0,-2.2549,-2.2575,-2.2586,-2.2598,-2.262,-2.2644,-2.2679,-2.2707,-2.2724,-2.2744,-2.2773,-2.2813,-2.28,-2.2815,-2.2813,-2.2837,-2.2888,-2.282,-2.282,-2.2831,-2.2948,-2.2959,-2.2968,-2.2881,-2.2883,-2.2884,-2.2946,0,-2.261,-2.2672,-2.2671,-2.2728,-2.2756,-2.2744,-2.2774,-2.2791,-2.2797,-2.2822,-2.2828,-2.2856,-2.2837,-2.2846,-2.2869,-2.2877,-2.2911,-2.2872,-2.2907,-2.2909,-2.2902,-2.2979,-2.299,-2.3048,-2.2954,-2.2956,-2.2957,0,-2.2691,-2.2713,-2.2773,-2.2791,-2.2802,-2.283,-2.2855,-2.2879,-2.2898,-2.29,-2.2918,-2.2912,-2.2947,-2.292,-2.2967,-2.2941,-2.2955,-2.2961,-2.2963,-2.2966,-2.2935,-2.2983,-2.3067,-2.3075,-2.2969,-2.2968,-2.2967,0,-2.2741,-2.2787,-2.2828,-2.2839,-2.2861,-2.2881,-2.2891,-2.2908,-2.2924,-2.2946,-2.2957,-2.2983,-2.2997,-2.3017,-2.3018,-2.2998,-2.3066,-2.3039,-2.3069,-2.3069,-2.3083,-2.3082,-2.317,-2.3094,-2.3094,-2.3093,-2.3093,0,-2.281,-2.2847,-2.2851,-2.2877,-2.2917,-2.2916,-2.2956,-2.2964,-2.2979,-2.3006,-2.2997,-2.3022,-2.3022,-2.3047,-2.3049,-2.3088,-2.3094,-2.3097,-2.3097,-2.3097,-2.3097,-2.3106,-2.3102,-2.3096,-2.3095,-2.3095,-2.3094,0,-2.2874,-2.2878,-2.2922,-2.2939,-2.2945,-2.2974,-2.2988,-2.3012,-2.3017,-2.305,-2.3058,-2.3066,-2.3095,-2.3098,-2.3133,-2.3133,-2.318,-2.3176,-2.3174,-2.3173,-2.3202,-2.32,-2.3298,-2.3311,-2.3227,-2.3228,-2.3229,0,-2.2917,-2.2945,-2.2965,-2.2982,-2.2993,-2.3021,-2.3038,-2.3038,-2.3056,-2.3079,-2.31,-2.3128,-2.3151,-2.3198,-2.3207,-2.3233,-2.3229,-2.3261,-2.3232,-2.3232,-2.3228,-2.3227,-2.3229,-2.3267,-2.3268,-2.3269,-2.3269,0,-2.2994,-2.2994,-2.3019,-2.3045,-2.3065,-2.3086,-2.3104,-2.3119,-2.3121,-2.3142,-2.3171,-2.3189,-2.3224,-2.3252,-2.3277,-2.3287,-2.3279,-2.3278,-2.3286,-2.3287,-2.3285,-2.3286,-2.3189,-2.3276,-2.3275,-2.3275,-2.3274,-2.3274,-2.3048,-2.3072,-2.309,-2.3118,-2.3132,-2.315,-2.3173,-2.318,-2.3205,-2.3234,-2.3232,-2.3265,-2.3282,-2.3316,-2.3327,-2.3353,-2.3342,-2.3354,-2.3357,-2.336,-2.3362,-2.3281,-2.3357,-2.3357,-2.3357,-2.3357,-2.3357,0,-2.3124,-2.3134,-2.316,-2.3187,-2.3208,-2.3198,-2.3219,-2.3237,-2.3266,-2.3284,-2.3306,-2.334,-2.3367,-2.3378,-2.3404,-2.3422,-2.3419,-2.3429,-2.3428,-2.343,-2.3371,-2.3361,-2.3432,-2.3431,-2.3431,-2.3431,-2.3431,-2.3431,-2.3166,-2.3205,-2.3208,-2.3255,-2.3265,-2.3297,-2.3309,-2.3325,-2.3339,-2.3377,-2.34,-2.3407,-2.3421,-2.3448,-2.3473,-2.3475,-2.3485,-2.3497,-2.3497,-2.3442,-2.3434,-2.3427,-2.3418,-2.3499,-2.3499,-2.3554,-2.3555,-2.3555]},{"header":{"parameterUnit":"m.s-1","parameterCategory":1,"la1":30.2991,"la2":30.254,"lo1":-89.0895,"lo2":-89.0444,"dy":0.0017,"dx":0.0017,"nx":28,"ny":28,"refTime":"2024-06-14T09:00:00:Z","depth":0,"parameterNumber":3,"parameterNumberName":"V-component_of_WINDS"},"data":[0,0,0,0,0,0,0,0,0,0,0,0,0,0,0,0,0,0,0,0,0,0,0,0,0,0,0,0,0,0,0,0,0,0,0,0,0,0,0,0,0,0,0,0,0,0,0,0,0,0,0,0,0,0,0,0,0,0,2.8979,2.898,0,2.9008,2.9008,2.9008,2.8964,2.8962,2.8961,2.896,2.8985,2.8987,2.8989,0,0,0,0,0,0,0,0,0,0,0,0,0,2.8883,2.8885,2.8979,2.898,2.898,2.9008,2.9008,2.9008,2.8964,2.8962,2.8961,2.8959,2.8984,2.8987,2.8989,0,0,0,0,0,0,0,0,0,0,0,0,0,2.8919,2.8886,2.8979,2.8961,2.896,2.9007,2.9008,2.9008,2.8965,2.8962,2.896,2.8958,2.8983,2.8986,2.8989,2.9054,0,0,2.8999,2.9,0,0,0,0,0,0,0,0,2.8917,2.8923,2.8964,2.8963,2.8961,2.898,2.8983,2.9024,2.8965,2.8963,2.8959,2.8957,2.8985,2.8988,2.8998,2.9056,2.9057,2.8999,2.9001,2.9003,2.9003,0,0,0,0,0,0,0,2.8915,2.8922,2.899,2.8964,2.8963,2.8951,2.8953,2.8991,2.8986,2.8963,2.896,2.8964,2.8984,2.8995,2.8998,2.9057,2.8999,2.9002,2.9004,2.9005,2.9168,2.9171,0,0,0,0,0,0,2.8915,2.892,2.8989,2.8991,2.8934,2.8954,2.8957,2.8976,2.8986,2.8985,2.8966,2.8962,2.8991,2.8995,2.8999,2.9075,2.9003,2.9005,2.9007,2.9166,2.9169,2.9171,0,0,0,0,0,0,2.8913,2.8922,2.8988,2.8955,2.8962,2.8958,2.898,2.8978,2.8989,2.8988,2.8986,2.8978,2.8989,2.8994,2.9041,2.9075,2.9007,2.901,2.9163,2.9167,2.917,2.9227,0,0,0,0,0,0,2.8911,2.8921,2.8947,2.8956,2.8964,2.9031,2.8982,2.898,2.8995,2.899,2.8999,2.8999,2.8988,2.9036,2.9044,2.9078,2.9012,2.916,2.9165,2.9169,2.9222,2.9232,2.9241,0,0,0,0,0,2.8907,2.8961,2.8949,2.8957,2.8996,2.9033,2.9038,2.9025,2.8998,2.9023,2.9022,2.8998,2.907,2.9042,2.905,2.9085,2.9158,2.9163,2.9169,2.9218,2.923,2.9241,0,0,0,0,0,0,2.8955,2.8962,2.8948,2.9007,2.902,2.9026,2.9057,2.9039,2.9059,2.9054,2.9036,2.9038,2.9088,2.9091,2.9059,2.9148,2.9109,2.9117,2.9144,2.9156,2.9165,2.9163,2.9015,0,0,0,0,0,2.8973,2.9004,2.9008,2.9059,2.9066,2.9061,2.9076,2.9066,2.9078,2.9083,2.9085,2.9097,2.9123,2.9139,2.9163,2.9223,2.9223,2.9251,2.9261,2.9268,2.9274,2.9306,2.9318,2.919,2.9189,2.9189,0,0,2.9009,2.9017,2.9037,2.9069,2.9078,2.9108,2.9066,2.91,2.9122,2.9088,2.9132,2.9134,2.9146,2.92,2.9224,2.9204,2.931,2.9275,2.9282,2.9283,2.9312,2.9325,2.9335,2.9193,2.9193,2.9192,0,0,2.9091,2.91,2.9143,2.9154,2.9168,2.9164,2.9175,2.9184,2.9184,2.9229,2.9203,2.9229,2.9273,2.9282,2.9293,2.9379,2.9357,2.9387,2.9435,2.9466,2.9476,2.9484,2.9514,2.9525,2.9393,2.9393,2.9393,0,2.9133,2.918,2.9168,2.9204,2.9218,2.919,2.9233,2.9243,2.9264,2.9274,2.9252,2.9306,2.9313,2.9367,2.9388,2.9398,2.9409,2.9385,2.9476,2.9484,2.9492,2.952,2.9531,2.9396,2.9396,2.9396,2.9395,0,2.9231,2.9264,2.9297,2.932,2.9337,2.9377,2.9369,2.9388,2.9376,2.9374,2.9419,2.9426,2.945,2.9462,2.945,2.9515,2.9502,2.9479,2.9439,2.9508,2.9534,2.9544,2.9401,2.94,2.9399,2.9398,0,0,2.9343,2.9358,2.9371,2.938,2.9394,2.9419,2.9457,2.9481,2.9497,2.9513,2.9543,2.9581,2.9559,2.9572,2.956,2.9587,2.9653,2.956,2.956,2.9576,2.9724,2.9741,2.9754,2.964,2.9642,2.9643,2.9723,0,2.9423,2.949,2.948,2.9543,2.9573,2.9546,2.9579,2.9591,2.959,2.9614,2.9612,2.9639,2.9609,2.9616,2.9641,2.964,2.9683,2.9634,2.9666,2.9668,2.9663,2.9768,2.9786,2.986,2.9733,2.9735,2.9736,0,2.9526,2.9546,2.9614,2.9623,2.9635,2.9665,2.9686,2.9709,2.9722,2.9719,2.9733,2.9717,2.9753,2.9714,2.9763,2.9731,2.9743,2.9745,2.9747,2.9749,2.9705,2.9771,2.9884,2.9895,2.9752,2.975,2.9749,0,2.9599,2.9644,2.9689,2.9698,2.9711,2.9732,2.9738,2.9748,2.9763,2.9781,2.9791,2.9813,2.9825,2.9841,2.9831,2.9804,2.9882,2.9842,2.9879,2.988,2.9896,2.9895,3.0012,2.9906,2.9906,2.9906,2.9906,0,2.9689,2.9731,2.9722,2.975,2.9796,2.9783,2.9828,2.9831,2.984,2.9867,2.9845,2.9871,2.9857,2.9881,2.9873,2.9914,2.992,2.9918,2.9915,2.9919,2.9919,2.9926,2.992,2.9909,2.9908,2.9908,2.9907,0,2.9779,2.9775,2.9822,2.9831,2.9834,2.9867,2.9873,2.9898,2.9896,2.993,2.9938,2.9934,2.9961,2.9953,2.9982,2.9977,3.0029,3.002,3.0025,3.0023,3.006,3.0056,3.0184,3.02,3.0085,3.0087,3.0088,0,2.9836,2.9868,2.988,2.9897,2.9905,2.9932,2.9948,2.9937,2.9954,2.997,2.9993,3.0019,3.0039,3.0083,3.0082,3.0104,3.0095,3.0138,3.0098,3.0101,3.0094,3.0092,3.0095,3.0146,3.0147,3.0148,3.0149,0,2.9938,2.9934,2.9958,2.9982,3.0002,3.0019,3.0035,3.005,3.0039,3.0059,3.0087,3.0103,3.0133,3.0158,3.0178,3.0183,3.0164,3.0162,3.0172,3.0176,3.0177,3.0176,3.0046,3.0159,3.0158,3.0157,3.0157,3.0156,3.0012,3.0039,3.0051,3.0079,3.0089,3.0104,3.0129,3.013,3.0154,3.0178,3.017,3.0202,3.0212,3.0237,3.0245,3.0269,3.0252,3.0266,3.027,3.0273,3.0277,3.0174,3.0273,3.0272,3.0272,3.0272,3.0272,0,3.0112,3.0119,3.0144,3.0167,3.0188,3.017,3.0186,3.0205,3.0234,3.0246,3.0266,3.0298,3.0323,3.0324,3.0346,3.0365,3.0357,3.0372,3.0369,3.0371,3.0292,3.0281,3.0378,3.0378,3.0378,3.0378,3.0378,3.0378,3.0166,3.021,3.0208,3.0257,3.0263,3.0295,3.0306,3.0319,3.0329,3.0366,3.0386,3.0387,3.0395,3.0418,3.0439,3.0439,3.0447,3.0465,3.0461,3.0387,3.0376,3.0366,3.0356,3.0467,3.0467,3.0538,3.0539,3.0539]}]]